Flag for U.S.A. Weather past 2 weeks in Victoria, Texas, U.S.A.

Now
59 °F

Fog.


Feels Like: 59 °F
Forecast: 55 / 73 °F
Wind: No wind

Location: Victoria Regional Airport

Current Time: Dec 22, 2014 at 1:27:52 AM

Latest Report: Dec 22, 2014 at 12:51 AM


Visibility: 3 mi

Pressure: 29.84 "Hg

Humidity: 93%

Dew point: 57 °F

Location of VictoriaLocation

Historic Weather in Victoria — Graph

°F

Victoria temperature yesterday

Maximum temperature yesterday: 62 °F (at 1:01 PM)
Minimum temperature yesterday: 53 °F (at 3:51 AM)
Average temperature yesterday: 57 °F

Past Weeks' High & Low Weather Summary

 TemperatureHumidityPressure
High79 °F (Dec 15, 3:51 PM)100% (Dec 13, 4:51 AM)30.37 "Hg (Dec 13, 4:51 AM)
Low44 °F (Dec 9, 5:51 AM)35% (Dec 16, 1:51 PM)29.85 "Hg (Dec 21, 11:51 PM)
Average61 °F80%30.14 "Hg
* Reported Dec 6 11:51 PM — Dec 21 11:51 PM, Victoria, Weather by CustomWeather, © 2014

Note: Actual official high and low records may vary slightly from our data, if they occured in-between our weather recording intervals... More about our weather records

Advertising

Victoria weather history for previous 24 hours

 ConditionsComfort  
Time TempWeatherWind HumidityBarometerVisibility
11:51 PM
Dec 21
59 °FFog.No wind93%29.85 "Hg4 mi
10:51 PM59 °FFog.6 mph93%29.88 "Hg6 mi
9:51 PM59 °FLow clouds.3 mph93%29.90 "Hg7 mi
8:51 PM59 °FMostly cloudy.8 mph87%29.90 "Hg8 mi
7:51 PM59 °FOvercast.8 mph87%29.92 "Hg9 mi
6:58 PM59 °FMostly cloudy.10 mph87%29.93 "Hg9 mi
5:51 PM60 °FOvercast.6 mph83%29.93 "Hg9 mi
4:51 PM62 °FMostly cloudy.9 mph78%29.93 "Hg9 mi
3:51 PM62 °FOvercast.6 mph75%29.95 "Hg9 mi
2:51 PM62 °FOvercast.3 mph73%29.97 "Hg9 mi
1:51 PM62 °FPartly sunny.3 mph73%29.98 "Hg9 mi
1:01 PM62 °FPartly sunny.No wind70%30.03 "Hg10 mi
11:51 AM58 °FOvercast.3 mph78%30.07 "Hg10 mi
10:51 AM57 °FMostly cloudy.5 mph81%30.12 "Hg10 mi
9:51 AM56 °FMostly cloudy.9 mph84%30.12 "Hg10 mi
8:51 AM54 °FOvercast.6 mph90%30.13 "Hg9 mi
7:51 AM54 °FOvercast.5 mph90%30.11 "Hg7 mi
6:51 AM53 °FOvercast.7 mph93%30.11 "Hg7 mi
5:51 AM53 °FFog.8 mph93%30.09 "Hg6 mi
4:51 AM53 °FFog.7 mph93%30.11 "Hg6 mi
3:51 AM53 °FFog.6 mph93%30.12 "Hg6 mi
2:51 AM54 °FFog.7 mph90%30.14 "Hg6 mi
2:00 AM54 °FLow clouds.No wind93%30.16 "Hg8 mi
Weather by CustomWeather, © 2014

See weather overviewHow to use our weather pages